Flag for Canada Weather past 2 weeks in Montreal, Quebec, Canada

Now
66 °F

Partly sunny.


Feels Like: 66 °F
Forecast: 59 / 75 °F
Wind: 14 mph from Southwest

Location: Montreal - Pierre Elliot Trudeau International Aiport

Current Time: Aug 29, 2015 at 11:16:44 AM

Latest Report: Aug 29, 2015 at 10:00 AM


Visibility: 15 mi

Pressure: 30.15 "Hg

Humidity: 78%

Dew point: 59 °F

Location of MontrealLocation

Historic Weather in Montreal — Graph

°F

Montreal temperature yesterday

Maximum temperature yesterday: 72 °F (at 1:00 PM)
Minimum temperature yesterday: 57 °F (at 4:00 AM)
Average temperature yesterday: 65 °F

Past Weeks' High & Low Weather Summary

 TemperatureHumidityPressure
High88 °F (Aug 17, 3:00 PM)100% (Aug 19, 5:00 AM)30.17 "Hg (Aug 19, 5:00 AM)
Low57 °F (Aug 28, 4:00 AM)39% (Aug 23, 6:00 PM)29.75 "Hg (Aug 24, 4:00 PM)
Average72 °F74%29.99 "Hg
* Reported Aug 14 10:00 AM — Aug 29 10:00 AM, Montreal, Weather by CustomWeather, © 2015

Note: Actual official high and low records may vary slightly from our data, if they occured in-between our weather recording intervals... More about our weather records

Advertising

Montreal weather history for previous 24 hours

 ConditionsComfort  
Time TempWeatherWind HumidityBarometerVisibility
10:00 AM
Sat, Aug 29
66 °FPartly sunny.14 mph78%30.15 "Hg15 mi
9:00 AM64 °FMostly cloudy.10 mph78%30.15 "Hg15 mi
8:00 AM63 °FPartly sunny.9 mph83%30.16 "Hg15 mi
7:00 AM59 °FPassing clouds.5 mph94%30.16 "Hg15 mi
6:00 AM59 °FPassing clouds.2 mph88%30.14 "Hg15 mi
5:00 AM59 °FPassing clouds.3 mph88%30.13 "Hg15 mi
4:00 AM59 °FPassing clouds.7 mph88%30.14 "Hg15 mi
3:00 AM61 °FPassing clouds.3 mph88%30.13 "Hg15 mi
2:00 AM61 °FPassing clouds.3 mph88%30.14 "Hg15 mi
1:00 AM61 °FPassing clouds.6 mph83%30.14 "Hg15 mi
12:00 AM63 °FClear.7 mph83%30.14 "Hg15 mi
11:00 PM
Fri, Aug 28
64 °FClear.2 mph78%30.14 "Hg15 mi
10:00 PM64 °FPassing clouds.5 mph78%30.15 "Hg15 mi
9:00 PM66 °FPassing clouds.5 mph73%30.14 "Hg15 mi
8:00 PM68 °FPassing clouds.7 mph69%30.11 "Hg15 mi
7:00 PM70 °FPassing clouds.7 mph64%30.11 "Hg15 mi
6:00 PM72 °FPassing clouds.12 mph57%30.11 "Hg30 mi
5:00 PM72 °FPartly sunny.13 mph61%30.11 "Hg30 mi
4:00 PM72 °FPartly sunny.12 mph57%30.12 "Hg30 mi
3:00 PM72 °FPartly sunny.14 mph61%30.12 "Hg30 mi
2:00 PM72 °FPartly sunny.14 mph57%30.13 "Hg30 mi
1:00 PM72 °FBroken clouds.12 mph57%30.15 "Hg30 mi
12:00 PM70 °FPassing clouds.13 mph60%30.16 "Hg30 mi
11:00 AM68 °FPassing clouds.14 mph60%30.17 "Hg30 mi
Weather by CustomWeather, © 2015

See weather overviewHow to use our weather pages